Location: Oshawa
(43.9000°N, 78.8670°W)
Time: 15:51:24
(UTC-04:00)

SPOT 5 - Visible Passes

Search period start: 29 August 2016 00:00
Search period end: 08 September 2016 00:00
Orbit: 623 x 816 km, 98.4° (Epoch: 29 August)

Date Brightness Start Highest point End Pass type
(mag) Time Alt. Az. Time Alt. Az. Time Alt. Az.
29 Aug 4.1 20:58:57 16° ESE 21:01:33 24° ENE 21:05:18 10° NNE visible
29 Aug 3.8 22:38:12 36° SW 22:39:23 43° W 22:43:57 10° NNW visible
30 Aug 2.9 21:47:47 40° SE 21:49:23 64° ENE 21:54:04 10° N visible
30 Aug 5.2 23:27:02 15° WSW 23:27:48 15° W 23:30:35 10° NW visible
31 Aug 4.2 20:57:22 16° ESE 20:59:41 23° ENE 21:03:18 10° NNE visible
31 Aug 3.7 22:36:37 40° SW 22:37:30 44° W 22:42:01 10° NNW visible
01 Sep 2.9 21:46:12 44° SE 21:47:30 61° ENE 21:52:07 10° N visible
01 Sep 5.2 23:25:27 16° W 23:25:53 16° W 23:28:45 10° NW visible
02 Sep 4.2 20:55:47 17° E 20:57:48 21° ENE 21:01:17 10° NNE visible
02 Sep 3.6 22:35:02 44° WSW 22:35:36 46° W 22:40:06 10° NNW visible
03 Sep 2.9 21:44:37 47° ESE 21:45:37 57° ENE 21:50:09 10° N visible
03 Sep 5.1 23:23:53 16° W 23:23:58 16° W 23:26:54 10° NW visible
04 Sep 4.3 20:54:12 17° E 20:55:55 20° ENE 20:59:15 10° NNE visible
04 Sep 3.5 22:33:27 48° WSW 22:33:41 48° W 22:38:10 10° NNW visible
05 Sep 2.9 21:43:02 49° ESE 21:43:43 54° ENE 21:48:11 10° N visible
05 Sep 5.1 23:22:17 17° W 23:22:17 17° W 23:25:01 10° NW visible
06 Sep 4.3 20:52:37 17° E 20:54:02 19° ENE 20:57:13 10° NNE visible
06 Sep 3.4 22:31:52 50° W 22:31:52 50° W 22:36:14 10° NNW visible
07 Sep 2.9 21:41:26 50° E 21:41:49 52° ENE 21:46:13 10° N visible
07 Sep 5.1 23:20:42 17° W 23:20:42 17° W 23:23:09 10° NW visible
